Вернуться в каталог

STARLINK-30552

АктивенСвязьVLEO
NORAD 57999·PAYLOAD·🇺🇸 United States

Запущен Oct 5, 2023 с Cape Canaveral Space Force Station

Loading…

Ближайшие Пролёты (ближайшие 24 часа)

TLE

СвежийSource: CelesTrak SupGP

Эпоха: Sep 14, 2026, 20:43 UTC

1 57999C 23153J   26257.86368056  .00027194  00000+0  98513-3 0  2575
2 57999  43.0000  79.1083 0001465 274.4904  75.2636 15.27559496    15

Отслеживайте STARLINK-30552 в реальном времени с AllMySat

Download on the App Store